Regional Weather Roundup
Issued by NWS Kansas City/Pleasant Hill, MO

Home | Current Version | Previous Version | Text Only | Print | Product List | Glossary On
Versions: 1 2 3 4 5 6 7 8 9 10 11 12 13 14 15 16 17 18 19 20 21 22 23 24 25 26 27 28 29 30 31 32 33 34 35 36 37 38 39 40 41 42 43 44 45 46 47 48 49 50
000
ASUS43 KEAX 281210
RWREAX

WEATHER ROUNDUP FOR EASTERN KANSAS AND NORTHWEST MISSOURI
NATIONAL WEATHER SERVICE KANSAS CITY/PLEASANT HILL MO
700 AM CDT FRI APR 28 2017

KSZ040-057-103>105-MOZ028-029-037-043-281300-
...KANSAS CITY METROPOLITAN AREA...

CITY           SKY/WX    TMP DP  RH WIND       PRES   REMARKS
K.C. INTL      LGT RAIN  50  49  96 E16       29.66F FOG
6HR MIN TEMP:  50; 6HR MAX TEMP:  51; 6HR PCP:  0.16;

K.C. DOWNTOWN  LGT RAIN  52  50  93 E10       29.66F
6HR MIN TEMP:  51; 6HR MAX TEMP:  53; 6HR PCP:  0.20;

LEES SUMMIT    LGT RAIN  51  50  96 E8        29.69S
6HR MIN TEMP:  50; 6HR MAX TEMP:  52; 6HR PCP:  0.24;

OLATHE - IXD   LGT RAIN  51  49  92 E10       29.64F
6HR MIN TEMP:  50; 6HR MAX TEMP:  51; 6HR PCP:  0.21;

OLATHE - OJC   LGT RAIN  50  50 100 E9        29.65S
6HR MIN TEMP:  49; 6HR MAX TEMP:  50; 6HR PCP:  0.23;

LAWRENCE       CLOUDY    51  51 100 E10       29.64F

$$

MOZ001>008-011>017-020>025-030>033-038>040-044>046-053-054-281300-
...NORTHERN AND CENTRAL MISSOURI...

CITY           SKY/WX    TMP DP  RH WIND       PRES   REMARKS
ST. JOSEPH     LGT RAIN  50  49  96 E13       29.68F
6HR MIN TEMP:  50; 6HR MAX TEMP:  51; 6HR PCP:  0.20;

MOSBY          RAIN      50  50 100 SE7       29.70S
WHITEMAN AFB   LGT RAIN  52  52 100 E8        29.70R
6HR MIN TEMP:  51; 6HR MAX TEMP:  54; 6HR PCP:  0.06;

CLINTON        LGT RAIN  54  52  94 NE6       29.70R
SEDALIA        LGT RAIN  53  52  96 E9        29.71F
6HR MIN TEMP:  52; 6HR MAX TEMP:  55; 6HR PCP:  0.08;

WARSAW         NOT AVBL
CHILLICOTHE      N/A     50  49  96 E5        29.75F
6HR MIN TEMP:  50; 6HR MAX TEMP:  52; 6HR PCP:  0.01;

KIRKSVILLE     CLOUDY    45  44  97 NE14      29.79S
6HR MIN TEMP:  45; 6HR MAX TEMP:  49;


$$

MOZ041-047>049-056>058-063>065-088>090-097-281300-
...EASTERN AND SOUTHERN MISSOURI...

CITY           SKY/WX    TMP DP  RH WIND       PRES   REMARKS
ST. LOUIS INTL CLOUDY    55  50  83 E10       29.83F
6HR MIN TEMP:  55; 6HR MAX TEMP:  58; 6HR PCP: TRACE;

SPIRIT OF STL  CLOUDY    54  52  93 E7        29.81F
COLUMBIA       CLOUDY    53  51  93 E13       29.74F
JEFFERSON CITY CLOUDY    56  50  80 E7        29.75F
ROLLA          RAIN      54  52  93 SE15      29.75S
OSAGE BEACH    RAIN      55  53  93 SE7       29.72F
SPRINGFIELD    LGT RAIN  55  53  93 SE16      29.75R
BRANSON        CLOUDY    54  52  94 NE3       29.76R
JOPLIN         CLOUDY    58  54  86 S15       29.66S
WEST PLAINS    CLOUDY    55  50  83 SE8       29.78F

$$

IAZ060-094-KSZ022-034>040-054-083-096-NEZ052-066-093-281300-
...KANSAS...SOUTHEAST NEBRASKA AND IOWA...

CITY           SKY/WX    TMP DP  RH WIND       PRES   REMARKS
TOPEKA         CLOUDY    51  51 100 E8        29.63R
6HR MIN TEMP:  50; 6HR MAX TEMP:  52; 6HR PCP:  0.26;

MANHATTAN      LGT RAIN  50  48  93 E7        29.61S FOG
EMPORIA        CLOUDY    52  52 100 E6        29.60R
CHANUTE        LGT RAIN  58  53  84 MISG      29.58F
WICHITA        CLOUDY    52  51  97 CALM      29.57R
OMAHA          RAIN      39  33  79 NE10      29.80R WCI  32
LINCOLN        RAIN      43  40  89 NE17      29.73S FOG
FALLS CITY     RAIN      46  44  93 E17       29.67F FOG
LAMONI         LGT RAIN  41  36  82 E13G18    29.77F WCI  34
DES MOINES     CLOUDY    39  29  67 E10       29.86R WCI  32

$$




USA.gov is the U.S. government's official web portal to all federal, state and local government web resources and services.